Theta_e
288 288 287 288 288 288 288 288 287 287 287 286 286 285 285 282 282 282 281 281 279 279 279 278 278 278 277 277 277 277 277 278
290 289 288 287 287 287 287 286 285 286 286 285 284 284 283 282 281 280 280 280 280 279 278 277 277 277 276 276 276 275 275 275
291 290 288 287 286 287 288 287 287 286 285 285 284 283 282 282 281 280 280 279 279 278 277 277 276 276 275 274 275 273 273 274
292 292 292 290 288 288 288 287 287 285 284 283 282 282 283 282 280 280 279 278 278 277 277 276 275 275 275 274 273 273 273 273
294 293 292 291 290 288 288 287 286 285 284 283 282 282 282 282 280 279 279 277 277 277 276 275 274 273 273 273 272 271 272 272
294 294 294 290 290 289 289 287 286 285 283 283 283 283 282 279 279 278 278 277 276 275 274 273 273 273 272 272 271 271 271 271
294 292 290 291 292 289 289 286 285 284 283 283 282 281 279 278 278 277 276 275 275 274 273 271 272 277 278 274 272 271 271 271
291 292 291 292 290 289 288 285 283 284 283 281 280 279 277 277 276 275 275 274 273 273 272 271 272 279 279 277 273 272 272 272
290 291 291 292 291 288 284 283 283 283 281 280 278 277 276 276 275 275 275 274 273 272 272 272 271 280 281 279 274 273 273 272
290 290 289 288 287 285 279 280 281 281 281 279 278 277 275 275 275 275 274 273 273 272 271 271 271 280 281 279 273 273 272 273
290 289 289 288 283 280 278 277 279 280 279 278 278 277 275 275 274 274 274 273 273 271 271 271 270 280 280 279 273 271 271 272
288 287 288 285 281 281 277 277 276 276 274 273 274 274 274 274 273 272 272 271 271 270 269 270 270 275 280 280 272 270 269 270
285 285 287 288 281 282 280 277 273 273 272 272 272 273 273 271 271 271 271 269 269 267 267 269 269 271 278 279 277 275 269 270
283 284 285 287 283 281 283 273 271 273 273 272 270 271 271 270 269 268 269 269 267 267 267 267 268 269 277 279 279 277 272 272
278 279 280 284 285 284 284 276 274 273 272 271 270 269 270 270 269 269 269 268 268 268 267 267 267 269 273 274 276 276 274 272
273 273 274 277 282 285 285 276 274 273 272 270 270 269 269 270 269 270 270 271 269 269 269 268 267 269 272 271 269 269 269 259
269 270 271 273 274 276 282 276 276 273 271 270 269 268 268 268 268 274 273 275 276 275 272 271 273 274 275 275 275 275 273 256
266 267 267 267 268 271 274 277 276 274 272 270 269 268 267 267 266 266 272 275 276 276 275 274 274 276 277 277 277 275 267 255
264 264 264 264 265 267 270 274 276 275 274 270 269 267 267 267 267 268 268 269 271 276 274 276 277 278 277 276 273 264 259 253
261 261 262 263 265 268 270 273 276 274 273 270 268 267 267 268 268 268 269 270 270 271 274 276 278 277 276 272 260 258 256 252
Wind_Speed
5 7 5 7 10 12 14 18 12 12 13 12 14 13 11 9 12 11 9 11 13 13 11 10 9 8 8 5 6 7 5 4
7 7 7 7 9 11 11 11 12 15 15 14 14 14 11 12 12 13 13 14 15 15 14 12 11 9 8 7 7 7 7 5
8 6 7 9 9 16 15 15 19 16 15 16 13 14 15 14 14 14 15 14 15 15 15 13 12 10 10 9 8 9 8 7
7 9 12 13 14 15 15 19 14 12 14 13 14 15 17 15 15 15 15 14 14 16 16 14 13 12 9 9 8 8 7 8
10 10 10 11 14 14 15 15 13 14 15 17 17 18 17 15 15 16 16 17 16 15 14 14 13 12 11 10 9 8 7 7
13 12 11 10 13 15 16 14 16 17 16 19 17 15 13 14 15 15 15 15 16 15 13 13 12 10 12 11 10 10 9 7
14 14 12 12 15 13 15 13 14 16 19 15 13 15 16 15 16 15 14 14 14 14 15 14 10 21 23 15 11 10 10 8
20 22 19 16 16 15 15 11 15 17 14 14 15 16 16 16 16 17 17 15 14 14 14 14 12 24 24 22 11 10 8 8
17 19 22 22 16 12 5 9 12 12 11 12 15 15 14 15 16 16 16 18 16 15 15 14 12 27 27 25 11 9 10 8
15 17 18 18 18 11 3 7 9 12 14 15 16 16 16 17 17 15 15 14 15 14 14 13 11 25 25 21 10 10 9 9
16 16 18 20 15 7 7 2 9 7 6 7 10 12 15 14 14 12 12 12 10 12 11 12 12 26 25 18 8 9 8 7
18 17 16 14 15 14 7 6 2 4 6 6 9 10 10 11 10 11 11 11 11 11 10 12 12 14 24 23 9 8 7 6
17 19 17 14 8 15 14 6 2 5 6 6 7 8 9 12 10 12 12 12 11 11 9 8 9 11 21 22 19 16 7 7
15 18 17 13 7 10 15 5 2 4 6 7 6 5 9 11 11 10 12 11 11 11 11 10 9 9 22 25 23 21 9 7
19 19 22 17 16 11 13 7 6 7 7 9 9 10 10 9 9 10 11 11 12 12 10 10 10 10 10 9 11 14 8 8
17 18 22 20 21 15 13 8 9 8 8 9 8 13 12 10 12 14 16 17 16 14 13 14 12 13 17 13 6 3 7 6
17 19 19 18 20 20 17 9 11 10 8 8 10 10 9 9 8 20 17 23 24 23 16 9 11 23 26 23 20 18 15 3
18 20 20 20 22 18 18 14 13 13 10 8 9 8 9 10 12 10 13 23 24 21 21 21 22 31 26 24 21 17 9 3
21 22 20 21 25 16 18 19 17 15 16 11 10 11 11 10 10 10 13 13 11 20 21 27 29 26 23 23 18 8 4 3
22 23 20 21 24 16 16 19 16 13 10 10 8 9 10 10 11 11 12 12 13 13 20 24 28 27 24 20 6 6 4 3
Wind_Direction
189 213 201 191 191 197 196 202 184 194 197 199 199 193 192 169 176 174 164 161 164 167 167 167 167 163 165 170 172 154 144 145
223 214 197 185 192 200 204 193 190 193 192 191 198 189 182 182 177 173 166 169 173 170 164 168 171 171 168 171 176 156 137 131
229 220 211 212 207 207 206 205 208 195 194 199 192 186 183 189 181 170 172 172 170 168 167 170 170 172 174 171 176 157 155 153
245 221 220 219 212 212 207 215 208 195 192 192 193 193 200 190 176 172 168 170 168 173 172 171 171 171 174 169 174 166 159 159
273 247 229 223 217 217 219 215 199 193 197 198 196 199 197 185 178 176 174 170 174 177 170 173 166 167 167 170 168 159 163 167
274 264 251 226 222 225 224 205 196 199 201 206 198 191 191 181 174 173 174 175 174 166 172 169 167 169 171 176 168 160 162 178
295 268 254 248 237 224 225 211 192 201 208 200 185 177 184 175 172 170 171 170 172 177 172 168 173 183 186 172 162 167 172 182
341 338 305 267 253 241 226 192 190 203 202 186 177 180 180 172 169 174 176 166 175 175 171 171 173 187 185 178 166 164 172 186
329 329 327 312 285 261 227 189 195 200 188 176 181 182 170 173 180 176 172 174 174 176 179 174 180 187 184 178 167 163 172 192
325 326 321 322 318 294 201 175 181 194 191 187 182 179 173 179 184 177 170 175 178 176 174 173 180 188 185 176 161 162 181 200
331 329 326 328 326 314 311 252 215 198 188 171 178 179 179 179 178 175 175 172 173 165 172 169 174 188 188 173 161 172 179 192
331 318 317 322 326 324 316 279 324 109 118 145 160 166 165 164 166 161 163 157 173 160 159 158 172 191 189 183 179 174 179 180
315 311 312 321 335 316 309 298 162 120 125 144 150 152 156 156 153 156 161 160 162 156 151 164 173 181 190 195 185 185 169 189
311 306 306 315 310 296 292 271 274 145 147 151 127 153 155 157 157 161 166 169 170 174 167 171 176 180 194 196 192 190 168 177
314 310 309 318 307 276 284 226 214 211 182 152 162 169 166 160 167 171 183 182 176 179 183 172 169 173 185 186 186 191 164 153
309 303 300 306 302 300 288 212 220 220 195 177 193 178 181 192 187 189 194 191 179 184 172 171 181 183 176 166 144 133 137 102
299 294 292 297 296 298 306 220 223 215 210 205 182 192 193 186 184 214 209 207 202 185 173 170 179 172 170 164 165 174 151 59
293 291 293 291 283 282 288 264 234 231 215 196 193 199 194 184 176 177 210 199 195 187 175 161 161 163 168 166 162 138 129 105
293 289 289 288 279 289 282 277 249 232 222 204 192 190 184 191 186 172 167 184 181 178 162 158 160 164 160 150 138 130 109 117
286 287 285 280 280 282 273 274 267 230 222 198 191 191 183 171 179 173 172 173 153 152 154 154 155 157 147 136 132 157 139 142